Regional Weather Roundup
Issued by NWS

Home | Current Version | Previous Version | Graphics & Text | Print | Product List | Glossary On
Versions: 1 2 3 4 5 6 7 8 9 10 11 12 13 14 15 16 17 18 19 20 21 22 23 24 25 26 27 28 29 30 31 32 33 34 35 36 37 38 39 40 41 42 43 44 45 46 47 48 49 50
000
ASUS43 KBIS 061210
RWRND

NORTH DAKOTA REGIONAL WEATHER ROUNDUP
NATIONAL WEATHER SERVICE BISMARCK ND
700 AM CDT MON JUL 06 2015

NOTE: "FAIR" INDICATES FEW OR NO CLOUDS BELOW 12,000 FEET WITH NO
SIGNIFICANT WEATHER AND/OR OBSTRUCTIONS TO VISIBILITY.


NDZ001>003-009>011-017-061300-
NORTHWEST NORTH DAKOTA

CITY           SKY/WX    TMP DP  RH WIND       PRES   REMARKS
WILLISTON      CLOUDY    57  52  83 N7        30.18R
6HR MIN TEMP:  56; 6HR MAX TEMP:  62;

MINOT          MOCLDY    51  49  92 NW5       30.12R FOG
MINOT AFB      PTCLDY    53  53 100 NW5       30.12R FOG
$$

NDZ018>021-031>035-040>046-061300-
SOUTHWEST NORTH DAKOTA

CITY           SKY/WX    TMP DP  RH WIND       PRES   REMARKS
BISMARCK       CLOUDY    60  54  80 N7        30.10R
6HR MIN TEMP:  60; 6HR MAX TEMP:  66; 6HR PCP: TRACE;

DICKINSON      CLOUDY    55  52  89 NW6       30.15R
GARRISON         N/A     56  52  86 N3        30.12R
6HR MIN TEMP:  54; 6HR MAX TEMP:  58;

HETTINGER ARPT CLOUDY    57  52  83 N5        30.16R
$$

NDZ004>008-012>016-024-026-027-054-061300-
NORTHEAST NORTH DAKOTA

CITY           SKY/WX    TMP DP  RH WIND       PRES   REMARKS
GRAND FORKS    PTSUNNY   55  51  86 N12       30.04R
GRND FRKS AFB  MOSUNNY   55  49  80 N12       30.05R
DEVILS LAKE    PTSUNNY   55  50  82 N7        30.07R
$$

NDZ022-023-025-028>030-036>039-047>053-061300-
SOUTHEAST NORTH DAKOTA

CITY           SKY/WX    TMP DP  RH WIND       PRES   REMARKS
FARGO          CLOUDY    61  55  81 N17       29.98R HAZE
6HR MIN TEMP:  61; 6HR MAX TEMP:  66;

JAMESTOWN      PTSUNNY   59  55  87 N12       30.04R FOG
$$




USA.gov is the U.S. government's official web portal to all federal, state and local government web resources and services.